Location: Columbia
(38.9520°N, 92.3340°W)
Time: 02:14:52
(UTC-06:00)

Cosmos 2219 Rocket - Visible Passes

Search period start: 27 November 2014 00:00
Search period end: 07 December 2014 00:00
Orbit: 827 x 848 km, 71.0° (Epoch: 26 November)

Date Brightness Start Highest point End Pass type
(mag) Time Alt. Az. Time Alt. Az. Time Alt. Az.
02 Dec 4.5 19:16:16 10° N 19:16:21 10° N 19:16:21 10° N visible
03 Dec 4.3 19:00:04 10° N 19:00:53 14° N 19:00:53 14° N visible
04 Dec 3.9 18:43:53 10° N 18:45:32 17° NNE 18:45:32 17° NNE visible
05 Dec 3.6 18:27:42 10° N 18:30:21 21° NNE 18:30:21 21° NNE visible
05 Dec 4.5 20:11:04 10° NW 20:12:08 16° NW 20:12:08 16° NW visible
06 Dec 3.3 18:11:32 10° N 18:15:25 23° NE 18:15:25 23° NE visible
06 Dec 3.9 19:54:45 10° NNW 19:57:13 26° NW 19:57:13 26° NW visible
